Location: Unspecified
(0.0000°N, 0.0000°E)
Time: 06:51:29
(UTC+00:00)

Vanguard 2 - Visible Passes

Search period start: 28 February 2015 00:00
Search period end: 10 March 2015 00:00
Orbit: 553 x 2946 km, 32.9° (Epoch: 26 February)

Date Brightness Start Highest point End Pass type
(mag) Time Alt. Az. Time Alt. Az. Time Alt. Az.
28 Feb 9.9 20:07:56 10° SW 20:25:36 64° SSE 20:29:09 54° E visible
28 Feb 10.9 22:22:19 10° WSW 22:30:40 33° W 22:30:40 33° W visible
01 Mar 11.0 18:15:26 10° SSW 18:30:50 37° SSE 18:45:19 10° E visible
01 Mar 9.7 20:27:07 10° SW 20:45:09 81° SE 20:47:21 71° E visible
01 Mar 11.2 22:42:48 10° WSW 22:48:52 24° W 22:48:52 24° W visible
02 Mar 10.7 18:34:16 10° SW 18:50:50 46° SSE 19:04:06 15° E visible
02 Mar 9.8 20:46:33 10° WSW 21:04:31 81° NW 21:05:38 77° N visible
02 Mar 11.5 23:03:56 10° W 23:07:09 16° W 23:07:09 16° W visible
03 Mar 10.4 18:53:09 10° SW 19:10:37 59° SSE 19:22:25 21° ENE visible
03 Mar 10.0 21:06:19 10° WSW 21:23:47 63° NW 21:23:57 63° NW visible
04 Mar 10.3 19:12:12 10° SW 19:30:13 73° SE 19:40:49 27° ENE visible
04 Mar 10.4 21:26:29 10° WSW 21:42:21 49° NW 21:42:21 49° NW visible
05 Mar 10.2 19:31:26 10° SW 19:49:42 90° NW 19:59:15 32° NE visible
05 Mar 10.7 21:47:10 10° W 22:00:48 36° NW 22:00:48 36° NW visible
06 Mar 10.3 19:50:56 10° WSW 20:09:05 73° NW 20:17:44 34° NE visible
06 Mar 11.1 22:08:29 10° W 22:19:17 27° NW 22:19:17 27° NW visible
07 Mar 10.5 20:10:47 10° WSW 20:28:28 58° NW 20:36:14 34° NNE visible
07 Mar 11.4 22:30:33 10° WNW 22:37:46 19° NW 22:37:46 19° NW visible
08 Mar 9.6 05:18:04 10° N 05:20:00 13° NNE 05:21:57 10° ENE visible
08 Mar 10.4 18:17:09 10° SW 18:34:25 82° SE 18:51:20 10° ENE visible
08 Mar 10.7 20:31:04 10° WSW 20:47:56 45° NW 20:54:45 31° NNE visible
08 Mar 11.6 22:53:32 10° WNW 22:56:18 13° NW 22:56:18 13° NW visible
09 Mar 8.8 05:35:42 10° NNW 05:39:17 25° NNE 05:42:36 10° E visible
09 Mar 10.5 18:36:26 10° WSW 18:53:52 82° NW 19:10:34 10° NE visible
09 Mar 10.9 20:51:54 10° W 21:07:32 35° NNW 21:13:15 27° N visible
